FIN9KC EFHK-LKPR

Flight info

Callsign FIN9KC
Flight time 2h 4m
Altitude 38000
Route VALOX DCT DANKA DCT ROSAX DCT LEMSI DCT PIMEX P739 DEREX DCT ANFEV DCT PENOR DCT KELOD DCT LATAG P861 RASAN DCT ASTEL DCT GOLOP
Aircraft A20N/M-SDE2E3FGHIRWXY/LB1

Departure

Time 2026-05-07 04:06
Airport Helsinki Vantaa Airport (EFHK)

Arrival

Time 2026-05-07 06:10
Airport Václav Havel Airport Prague (LKPR)
Time Latitude Longitude Altitude Speed Heading
2026-05-07 03:52 60.31910 24.96615 161 ft 0 kts 136°
2026-05-07 03:59 60.31922 24.96592 161 ft 2 kts 136°
2026-05-07 04:00 60.31934 24.96569 161 ft 2 kts 136°
2026-05-07 04:00 60.31946 24.96546 161 ft 2 kts 149°
2026-05-07 04:00 60.31960 24.96549 161 ft 2 kts 229°
2026-05-07 04:00 60.31967 24.96565 161 ft 0 kts 227°
2026-05-07 04:02 60.31966 24.96562 161 ft 2 kts 227°
2026-05-07 04:02 60.31940 24.96505 161 ft 10 kts 227°
2026-05-07 04:02 60.31872 24.96354 161 ft 18 kts 229°
2026-05-07 04:02 60.31878 24.96125 161 ft 18 kts 315°
2026-05-07 04:03 60.31926 24.95947 161 ft 11 kts 244°
2026-05-07 04:03 60.31852 24.95794 161 ft 19 kts 227°
2026-05-07 04:03 60.31756 24.95580 161 ft 22 kts 228°
2026-05-07 04:03 60.31646 24.95336 161 ft 25 kts 227°
2026-05-07 04:04 60.31525 24.95070 161 ft 27 kts 227°
2026-05-07 04:04 60.31423 24.94844 161 ft 9 kts 226°
2026-05-07 04:04 60.31401 24.94727 161 ft 10 kts 287°
2026-05-07 04:04 60.31458 24.94619 161 ft 15 kts 319°
2026-05-07 04:05 60.31541 24.94541 161 ft 10 kts 35°
2026-05-07 04:05 60.31597 24.94665 160 ft 25 kts 47°
2026-05-07 04:05 60.31878 24.95282 162 ft 92 kts 47°
2026-05-07 04:05 60.32434 24.96507 163 ft 142 kts 47°
2026-05-07 04:06 60.33138 24.98041 564 ft 151 kts 46°
2026-05-07 04:06 60.33837 24.99573 1298 ft 146 kts 48°
2026-05-07 04:06 60.34531 25.01091 1951 ft 149 kts 49°
2026-05-07 04:06 60.35249 25.02670 2351 ft 167 kts 49°
2026-05-07 04:07 60.36080 25.04510 2791 ft 188 kts 49°
2026-05-07 04:07 60.37009 25.06575 3293 ft 210 kts 49°
2026-05-07 04:07 60.38053 25.08897 3815 ft 235 kts 49°
2026-05-07 04:07 60.38959 25.11781 4465 ft 255 kts 72°
2026-05-07 04:08 60.39084 25.15376 5362 ft 262 kts 102°
2026-05-07 04:08 60.38425 25.18825 6392 ft 267 kts 115°
2026-05-07 04:08 60.37611 25.22256 7112 ft 277 kts 116°
2026-05-07 04:08 60.36790 25.25697 7311 ft 275 kts 116°
2026-05-07 04:09 60.35964 25.29186 7484 ft 276 kts 116°
2026-05-07 04:09 60.35135 25.32698 7646 ft 277 kts 117°
2026-05-07 04:09 60.33973 25.35776 7788 ft 278 kts 142°
2026-05-07 04:09 60.32244 25.37462 8022 ft 280 kts 170°
2026-05-07 04:10 60.30294 25.37613 8909 ft 281 kts 181°
2026-05-07 04:10 60.28333 25.37597 10029 ft 283 kts 181°
2026-05-07 04:10 60.26345 25.37595 10695 ft 300 kts 182°
2026-05-07 04:10 60.24233 25.36870 11076 ft 319 kts 202°
2026-05-07 04:11 60.22341 25.34420 11652 ft 329 kts 227°
2026-05-07 04:11 60.20883 25.30881 12623 ft 329 kts 233°
2026-05-07 04:11 60.19458 25.27272 13602 ft 331 kts 233°
2026-05-07 04:11 60.18018 25.23637 14465 ft 333 kts 233°
2026-05-07 04:12 60.16572 25.20003 15355 ft 334 kts 233°
2026-05-07 04:12 60.15117 25.16363 16225 ft 334 kts 233°
2026-05-07 04:12 60.13657 25.12723 17081 ft 336 kts 233°
2026-05-07 04:12 60.12208 25.09114 17908 ft 338 kts 233°
2026-05-07 04:13 60.10729 25.05439 18678 ft 339 kts 233°
2026-05-07 04:13 60.09246 25.01757 19421 ft 340 kts 233°
2026-05-07 04:13 60.07755 24.98060 20127 ft 342 kts 233°
2026-05-07 04:13 60.06255 24.94349 20826 ft 344 kts 233°
2026-05-07 04:14 60.04747 24.90618 21528 ft 346 kts 233°
2026-05-07 04:14 60.03232 24.86881 22245 ft 347 kts 233°
2026-05-07 04:14 60.01724 24.83164 22896 ft 349 kts 233°
2026-05-07 04:14 60.00189 24.79388 23563 ft 352 kts 233°
2026-05-07 04:15 59.98645 24.75593 24108 ft 354 kts 233°
2026-05-07 04:15 59.97079 24.71755 24656 ft 356 kts 233°
2026-05-07 04:15 59.95510 24.67915 25177 ft 359 kts 233°
2026-05-07 04:15 59.93925 24.64041 25692 ft 361 kts 233°
2026-05-07 04:16 59.92332 24.60153 26172 ft 364 kts 233°
2026-05-07 04:16 59.90725 24.56238 26663 ft 366 kts 233°
2026-05-07 04:16 59.89106 24.52303 27141 ft 369 kts 233°
2026-05-07 04:16 59.87495 24.48392 27591 ft 371 kts 232°
2026-05-07 04:17 59.85852 24.44409 28026 ft 374 kts 232°
2026-05-07 04:17 59.84199 24.40412 28474 ft 376 kts 233°
2026-05-07 04:17 59.82531 24.36381 28879 ft 378 kts 232°
2026-05-07 04:17 59.80854 24.32337 29282 ft 381 kts 232°
2026-05-07 04:18 59.79163 24.28267 29664 ft 383 kts 232°
2026-05-07 04:18 59.77459 24.24173 30059 ft 386 kts 232°
2026-05-07 04:18 59.75768 24.20118 30386 ft 388 kts 232°
2026-05-07 04:18 59.73970 24.16093 30701 ft 392 kts 228°
2026-05-07 04:19 59.71972 24.12374 31015 ft 396 kts 224°
2026-05-07 04:19 59.69781 24.09018 31386 ft 400 kts 219°
2026-05-07 04:19 59.67509 24.05851 31800 ft 400 kts 219°
2026-05-07 04:19 59.65244 24.02674 32219 ft 399 kts 219°
2026-05-07 04:20 59.62983 23.99494 32639 ft 398 kts 219°
2026-05-07 04:20 59.60727 23.96320 33060 ft 398 kts 219°
2026-05-07 04:20 59.58505 23.93195 33463 ft 397 kts 219°
2026-05-07 04:21 59.54012 23.86878 34198 ft 396 kts 219°
2026-05-07 04:21 59.51767 23.83729 34458 ft 397 kts 219°
2026-05-07 04:21 59.49516 23.80563 34717 ft 397 kts 220°
2026-05-07 04:21 59.47379 23.77135 34958 ft 396 kts 225°
2026-05-07 04:22 59.45430 23.73318 35198 ft 395 kts 230°
2026-05-07 04:22 59.43583 23.69320 35447 ft 396 kts 230°
2026-05-07 04:22 59.41754 23.65373 35680 ft 396 kts 230°
2026-05-07 04:22 59.39890 23.61371 35912 ft 397 kts 230°
2026-05-07 04:23 59.38017 23.57370 36122 ft 399 kts 230°
2026-05-07 04:23 59.36138 23.53370 36353 ft 399 kts 230°
2026-05-07 04:23 59.34252 23.49365 36568 ft 400 kts 230°
2026-05-07 04:23 59.32364 23.45362 36778 ft 401 kts 229°
2026-05-07 04:24 59.30466 23.41346 36984 ft 402 kts 229°
2026-05-07 04:24 59.28568 23.37335 37185 ft 402 kts 229°
2026-05-07 04:24 59.26692 23.33378 37391 ft 403 kts 229°
2026-05-07 04:24 59.24784 23.29363 37582 ft 404 kts 229°
2026-05-07 04:25 59.22871 23.25342 37783 ft 404 kts 229°
2026-05-07 04:25 59.20954 23.21319 37968 ft 405 kts 229°
2026-05-07 04:25 59.17112 23.13282 38025 ft 404 kts 229°
2026-05-07 04:26 59.13279 23.05289 38018 ft 404 kts 229°
2026-05-07 04:26 59.09464 22.97364 38020 ft 404 kts 229°
2026-05-07 04:27 59.05621 22.89407 38023 ft 404 kts 229°
2026-05-07 04:27 59.01773 22.81465 38022 ft 404 kts 229°
2026-05-07 04:28 58.97943 22.73596 38021 ft 404 kts 229°
2026-05-07 04:28 58.94086 22.65691 38022 ft 404 kts 229°
2026-05-07 04:29 58.90220 22.57793 38020 ft 404 kts 229°
2026-05-07 04:29 58.86349 22.49915 38020 ft 404 kts 229°
2026-05-07 04:30 58.82499 22.42109 38018 ft 404 kts 229°
2026-05-07 04:30 58.78617 22.34264 38015 ft 404 kts 229°
2026-05-07 04:31 58.74732 22.26441 38011 ft 404 kts 229°
2026-05-07 04:31 58.70841 22.18632 38017 ft 404 kts 228°
2026-05-07 04:32 58.66950 22.10848 38011 ft 404 kts 228°
2026-05-07 04:32 58.63078 22.03131 38006 ft 404 kts 228°
2026-05-07 04:33 58.59178 21.95384 37999 ft 404 kts 228°
2026-05-07 04:33 58.55271 21.87651 38013 ft 404 kts 228°
2026-05-07 04:34 58.51390 21.79993 38015 ft 404 kts 228°
2026-05-07 04:34 58.47476 21.72297 38007 ft 404 kts 228°
2026-05-07 04:35 58.43558 21.64620 38002 ft 403 kts 228°
2026-05-07 04:35 58.39636 21.56961 38007 ft 403 kts 228°
2026-05-07 04:36 58.35734 21.49368 38000 ft 403 kts 228°
2026-05-07 04:36 58.31803 21.41743 38005 ft 403 kts 228°
2026-05-07 04:37 58.27869 21.34137 38003 ft 403 kts 228°
2026-05-07 04:37 58.23929 21.26545 38008 ft 403 kts 228°
2026-05-07 04:38 58.20011 21.19023 38006 ft 403 kts 227°
2026-05-07 04:38 58.16039 21.11503 38007 ft 403 kts 227°
2026-05-07 04:39 58.12063 21.04004 38006 ft 403 kts 227°
2026-05-07 04:39 58.08114 20.96570 38006 ft 403 kts 227°
2026-05-07 04:40 58.04134 20.89100 38007 ft 403 kts 227°
2026-05-07 04:40 58.00149 20.81647 38003 ft 403 kts 227°
2026-05-07 04:41 57.96163 20.74215 38002 ft 403 kts 227°
2026-05-07 04:41 57.92171 20.66799 38007 ft 403 kts 227°
2026-05-07 04:42 57.88205 20.59454 38005 ft 403 kts 227°
2026-05-07 04:42 57.84208 20.52076 38002 ft 403 kts 227°
2026-05-07 04:43 57.80207 20.44715 38001 ft 403 kts 227°
2026-05-07 04:43 57.76231 20.37422 38002 ft 403 kts 227°
2026-05-07 04:44 57.72220 20.30091 37996 ft 403 kts 227°
2026-05-07 04:44 57.68209 20.22782 37997 ft 403 kts 227°
2026-05-07 04:45 57.64071 20.15710 37997 ft 403 kts 225°
2026-05-07 04:45 57.59924 20.08762 37991 ft 403 kts 225°
2026-05-07 04:46 57.55751 20.01772 37997 ft 403 kts 225°
2026-05-07 04:46 57.51573 19.94800 37996 ft 403 kts 225°
2026-05-07 04:47 57.47387 19.87845 37996 ft 403 kts 225°
2026-05-07 04:47 57.43228 19.80942 37972 ft 404 kts 224°
2026-05-07 04:48 57.39030 19.74013 37971 ft 404 kts 224°
2026-05-07 04:48 57.34826 19.67098 37971 ft 404 kts 223°
2026-05-07 04:49 57.30643 19.60237 37978 ft 405 kts 223°
2026-05-07 04:49 57.26422 19.53335 37982 ft 405 kts 223°
2026-05-07 04:50 57.22193 19.46442 37985 ft 406 kts 223°
2026-05-07 04:50 57.17950 19.39550 37988 ft 407 kts 223°
2026-05-07 04:51 57.13696 19.32660 37990 ft 407 kts 223°
2026-05-07 04:51 57.09460 19.25823 37993 ft 408 kts 223°
2026-05-07 04:52 57.05184 19.18942 37996 ft 409 kts 223°
2026-05-07 04:52 57.00901 19.12073 37999 ft 409 kts 223°
2026-05-07 04:53 56.96636 19.05254 38005 ft 410 kts 223°
2026-05-07 04:53 56.92342 18.98412 37993 ft 408 kts 223°
2026-05-07 04:54 56.88062 18.91612 37990 ft 408 kts 223°
2026-05-07 04:54 56.83770 18.84814 37991 ft 408 kts 223°
2026-05-07 04:55 56.79502 18.78077 37989 ft 408 kts 223°
2026-05-07 04:55 56.75200 18.71306 37993 ft 409 kts 223°
2026-05-07 04:56 56.70892 18.64547 37991 ft 409 kts 222°
2026-05-07 04:56 56.66577 18.57798 37989 ft 409 kts 222°
2026-05-07 04:57 56.62289 18.51112 37988 ft 409 kts 222°
2026-05-07 04:57 56.57963 18.44389 37993 ft 409 kts 222°
2026-05-07 04:58 56.53634 18.37682 37993 ft 409 kts 222°
2026-05-07 04:58 56.49301 18.30989 37999 ft 409 kts 222°
2026-05-07 04:59 56.44963 18.24308 38005 ft 409 kts 222°
2026-05-07 04:59 56.40651 18.17689 38005 ft 409 kts 222°
2026-05-07 05:00 56.36306 18.11039 37991 ft 410 kts 222°
2026-05-07 05:00 56.31956 18.04402 37985 ft 410 kts 222°
2026-05-07 05:01 56.27604 17.97784 37998 ft 409 kts 222°
2026-05-07 05:01 56.23279 17.91225 38000 ft 409 kts 222°
2026-05-07 05:02 56.18920 17.84637 37991 ft 409 kts 221°
2026-05-07 05:02 56.14557 17.78062 37987 ft 409 kts 221°
2026-05-07 05:03 56.10194 17.71506 37994 ft 409 kts 221°
2026-05-07 05:03 56.05856 17.65009 37992 ft 409 kts 221°
2026-05-07 05:04 56.01486 17.58484 37987 ft 409 kts 221°
2026-05-07 05:04 55.97108 17.51966 37988 ft 409 kts 221°
2026-05-07 05:05 55.92730 17.45469 37984 ft 410 kts 221°
2026-05-07 05:05 55.88374 17.39023 37985 ft 410 kts 221°
2026-05-07 05:06 55.83984 17.32545 37987 ft 410 kts 221°
2026-05-07 05:06 55.79368 17.26584 37987 ft 412 kts 213°
2026-05-07 05:07 55.74262 17.22046 37992 ft 415 kts 204°
2026-05-07 05:07 55.68754 17.18851 37994 ft 417 kts 200°
2026-05-07 05:08 55.63200 17.15865 37988 ft 418 kts 198°
2026-05-07 05:08 55.57517 17.13538 37992 ft 419 kts 196°
2026-05-07 05:09 55.51867 17.11263 37993 ft 419 kts 196°
2026-05-07 05:09 55.46181 17.08960 37991 ft 420 kts 196°
2026-05-07 05:10 55.40488 17.06657 37994 ft 420 kts 196°
2026-05-07 05:10 55.34801 17.04365 37995 ft 420 kts 196°
2026-05-07 05:11 55.29109 17.02079 37995 ft 419 kts 196°
2026-05-07 05:11 55.23456 16.99815 37992 ft 419 kts 196°
2026-05-07 05:12 55.17767 16.97544 37988 ft 419 kts 196°
2026-05-07 05:12 55.12080 16.95280 37901 ft 419 kts 196°
2026-05-07 05:13 55.06513 16.93074 37981 ft 410 kts 196°
2026-05-07 05:13 55.00934 16.90861 37980 ft 412 kts 196°
2026-05-07 05:14 54.95344 16.88653 37981 ft 412 kts 196°
2026-05-07 05:14 54.89758 16.86455 37977 ft 412 kts 196°
2026-05-07 05:15 54.84205 16.84275 37984 ft 412 kts 196°
2026-05-07 05:15 54.78609 16.82085 37977 ft 412 kts 196°
2026-05-07 05:16 54.73015 16.79902 37971 ft 413 kts 195°
2026-05-07 05:16 54.67409 16.77720 37965 ft 413 kts 195°
2026-05-07 05:17 54.61835 16.75556 37964 ft 414 kts 195°
2026-05-07 05:17 54.56213 16.73379 37964 ft 414 kts 195°
2026-05-07 05:18 54.50583 16.71206 37967 ft 415 kts 195°
2026-05-07 05:18 54.44942 16.69035 37971 ft 416 kts 195°
2026-05-07 05:19 54.39328 16.66880 37979 ft 416 kts 195°
2026-05-07 05:19 54.33669 16.64715 37982 ft 417 kts 195°
2026-05-07 05:20 54.28007 16.62555 37984 ft 417 kts 195°
2026-05-07 05:20 54.22361 16.60408 37968 ft 415 kts 195°
2026-05-07 05:21 54.13943 16.57215 37969 ft 415 kts 195°
2026-05-07 05:22 54.08309 16.55086 37967 ft 415 kts 195°
2026-05-07 05:22 54.02677 16.52964 37966 ft 414 kts 195°
2026-05-07 05:23 53.97086 16.50863 37958 ft 414 kts 195°
2026-05-07 05:23 53.91461 16.48755 37959 ft 414 kts 195°
2026-05-07 05:24 53.85842 16.46655 37957 ft 414 kts 195°
2026-05-07 05:24 53.80212 16.44557 37952 ft 414 kts 195°
2026-05-07 05:25 53.74626 16.42481 37953 ft 414 kts 195°
2026-05-07 05:25 53.69004 16.40398 37951 ft 414 kts 195°
2026-05-07 05:26 53.63374 16.38316 37944 ft 414 kts 195°
2026-05-07 05:26 53.57745 16.36241 37942 ft 414 kts 195°
2026-05-07 05:27 53.52150 16.34185 37944 ft 414 kts 195°
2026-05-07 05:27 53.46517 16.32119 37938 ft 414 kts 195°
2026-05-07 05:28 53.40879 16.30058 37941 ft 415 kts 195°
2026-05-07 05:28 53.35276 16.28015 37940 ft 415 kts 195°
2026-05-07 05:29 53.29630 16.25962 37936 ft 415 kts 195°
2026-05-07 05:29 53.23978 16.23912 37945 ft 416 kts 195°
2026-05-07 05:30 53.18321 16.21867 37941 ft 416 kts 194°
2026-05-07 05:30 53.12694 16.19837 37939 ft 417 kts 194°
2026-05-07 05:31 53.07029 16.17799 37942 ft 417 kts 194°
2026-05-07 05:31 53.01362 16.15765 37935 ft 417 kts 194°
2026-05-07 05:32 52.95729 16.13750 37937 ft 417 kts 194°
2026-05-07 05:32 52.90058 16.11726 37937 ft 417 kts 194°
2026-05-07 05:33 52.84490 16.09745 37932 ft 416 kts 194°
2026-05-07 05:33 52.78826 16.07734 37928 ft 416 kts 194°
2026-05-07 05:34 52.73209 16.05746 37927 ft 416 kts 194°
2026-05-07 05:34 52.67554 16.03749 37919 ft 415 kts 194°
2026-05-07 05:35 52.61895 16.01755 37907 ft 416 kts 194°
2026-05-07 05:35 52.56236 15.99768 37896 ft 416 kts 194°
2026-05-07 05:36 52.50613 15.97799 37895 ft 416 kts 194°
2026-05-07 05:36 52.44952 15.95821 37891 ft 416 kts 194°
2026-05-07 05:37 52.39288 15.93847 37887 ft 416 kts 194°
2026-05-07 05:37 52.33622 15.91877 37894 ft 417 kts 194°
2026-05-07 05:38 52.27983 15.89920 37896 ft 417 kts 194°
2026-05-07 05:38 52.22281 15.88019 37900 ft 419 kts 191°
2026-05-07 05:39 52.16528 15.86489 37900 ft 420 kts 192°
2026-05-07 05:39 52.10799 15.84947 37905 ft 420 kts 192°
2026-05-07 05:40 52.05022 15.83397 37913 ft 421 kts 191°
2026-05-07 05:40 51.99236 15.81850 37910 ft 422 kts 191°
2026-05-07 05:41 51.93435 15.80303 37914 ft 423 kts 191°
2026-05-07 05:41 51.87669 15.78770 37910 ft 423 kts 191°
2026-05-07 05:42 51.81861 15.77229 37908 ft 423 kts 191°
2026-05-07 05:42 51.76068 15.75566 37889 ft 420 kts 195°
2026-05-07 05:43 51.70527 15.72677 37885 ft 418 kts 204°
2026-05-07 05:43 51.65370 15.68390 37889 ft 417 kts 211°
2026-05-07 05:44 51.60401 15.63687 37886 ft 417 kts 211°
2026-05-07 05:44 51.55389 15.59003 37881 ft 417 kts 211°
2026-05-07 05:45 51.50357 15.54330 37890 ft 418 kts 211°
2026-05-07 05:45 51.45321 15.49667 37880 ft 417 kts 211°
2026-05-07 05:46 51.40338 15.45063 37877 ft 416 kts 211°
2026-05-07 05:46 51.35325 15.40444 37877 ft 416 kts 211°
2026-05-07 05:47 51.30312 15.35837 37877 ft 415 kts 211°
2026-05-07 05:47 51.25302 15.31243 37871 ft 415 kts 211°
2026-05-07 05:48 51.20328 15.26695 37872 ft 415 kts 211°
2026-05-07 05:48 51.15324 15.22130 37866 ft 414 kts 211°
2026-05-07 05:49 51.10331 15.17588 37857 ft 413 kts 211°
2026-05-07 05:49 51.05347 15.13066 37850 ft 412 kts 211°
2026-05-07 05:50 51.00613 15.08109 37643 ft 408 kts 220°
2026-05-07 05:50 50.98519 15.05078 37082 ft 408 kts 225°
2026-05-07 05:50 50.96509 15.01876 36327 ft 410 kts 224°
2026-05-07 05:50 50.94489 14.98665 35453 ft 411 kts 224°
2026-05-07 05:51 50.92467 14.95468 34452 ft 410 kts 223°
2026-05-07 05:51 50.90451 14.92295 33416 ft 407 kts 223°
2026-05-07 05:51 50.88464 14.89182 32126 ft 408 kts 223°
2026-05-07 05:51 50.86421 14.86037 30734 ft 411 kts 220°
2026-05-07 05:52 50.84250 14.83132 29727 ft 405 kts 218°
2026-05-07 05:52 50.82107 14.80322 28939 ft 393 kts 218°
2026-05-07 05:52 50.80037 14.77598 28500 ft 385 kts 218°
2026-05-07 05:52 50.77961 14.74871 28223 ft 391 kts 218°
2026-05-07 05:53 50.75871 14.72128 27938 ft 390 kts 218°
2026-05-07 05:53 50.73773 14.69380 27374 ft 393 kts 218°
2026-05-07 05:53 50.71674 14.66632 26808 ft 391 kts 218°
2026-05-07 05:53 50.69618 14.63943 26246 ft 386 kts 218°
2026-05-07 05:54 50.67563 14.61259 25692 ft 381 kts 218°
2026-05-07 05:54 50.65538 14.58619 25138 ft 376 kts 218°
2026-05-07 05:54 50.63535 14.56012 24587 ft 371 kts 218°
2026-05-07 05:54 50.61552 14.53434 24042 ft 368 kts 218°
2026-05-07 05:55 50.59587 14.50884 23490 ft 365 kts 218°
2026-05-07 05:55 50.57570 14.48507 22903 ft 360 kts 213°
2026-05-07 05:55 50.55486 14.46374 22367 ft 355 kts 213°
2026-05-07 05:55 50.53462 14.44293 21845 ft 350 kts 213°
2026-05-07 05:56 50.51435 14.42205 21308 ft 346 kts 213°
2026-05-07 05:56 50.49431 14.40141 20804 ft 343 kts 213°
2026-05-07 05:56 50.47438 14.38089 20261 ft 341 kts 213°
2026-05-07 05:56 50.45447 14.36100 19739 ft 339 kts 208°
2026-05-07 05:57 50.43264 14.34740 19217 ft 340 kts 195°
2026-05-07 05:57 50.40819 14.34250 18673 ft 370 kts 181°
2026-05-07 05:57 50.38243 14.34662 18285 ft 381 kts 174°
2026-05-07 05:57 50.35603 14.35213 17663 ft 385 kts 174°
2026-05-07 05:58 50.32948 14.35760 17008 ft 384 kts 174°
2026-05-07 05:58 50.30311 14.36298 16353 ft 380 kts 174°
2026-05-07 05:58 50.27709 14.36823 15713 ft 375 kts 174°
2026-05-07 05:58 50.25141 14.37338 15080 ft 371 kts 174°
2026-05-07 05:59 50.22593 14.37846 14471 ft 367 kts 174°
2026-05-07 05:59 50.20082 14.38347 13902 ft 362 kts 174°
2026-05-07 05:59 50.17630 14.38834 13292 ft 357 kts 175°
2026-05-07 05:59 50.15218 14.39652 12725 ft 355 kts 161°
2026-05-07 06:00 50.13110 14.41629 12153 ft 356 kts 142°
2026-05-07 06:00 50.11490 14.44538 11587 ft 356 kts 130°
2026-05-07 06:00 50.10010 14.47612 11014 ft 353 kts 130°
2026-05-07 06:00 50.08548 14.50659 10441 ft 350 kts 130°
2026-05-07 06:01 50.07106 14.53648 10157 ft 339 kts 130°
2026-05-07 06:01 50.05735 14.56482 10006 ft 325 kts 130°
2026-05-07 06:01 50.04408 14.59212 9842 ft 307 kts 130°
2026-05-07 06:01 50.03136 14.61818 9545 ft 299 kts 131°
2026-05-07 06:02 50.01884 14.64371 9166 ft 295 kts 131°
2026-05-07 06:02 50.00642 14.66897 8736 ft 293 kts 131°
2026-05-07 06:02 49.99409 14.69406 8323 ft 291 kts 130°
2026-05-07 06:02 49.98187 14.71890 7908 ft 289 kts 130°
2026-05-07 06:03 49.96761 14.74024 7494 ft 281 kts 153°
2026-05-07 06:03 49.94983 14.74938 7112 ft 270 kts 179°
2026-05-07 06:03 49.93179 14.74498 6758 ft 260 kts 206°
2026-05-07 06:03 49.91703 14.72964 6437 ft 253 kts 223°
2026-05-07 06:04 49.90673 14.70811 6110 ft 248 kts 248°
2026-05-07 06:04 49.90360 14.68229 5785 ft 245 kts 272°
2026-05-07 06:04 49.90807 14.65700 5470 ft 246 kts 296°
2026-05-07 06:04 49.91809 14.63547 5145 ft 245 kts 305°
2026-05-07 06:05 49.92875 14.61431 4932 ft 260 kts 304°
2026-05-07 06:05 49.94008 14.59111 4701 ft 274 kts 304°
2026-05-07 06:05 49.95124 14.56828 4611 ft 262 kts 304°
2026-05-07 06:05 49.96200 14.54621 4417 ft 251 kts 303°
2026-05-07 06:06 49.97232 14.52500 4298 ft 241 kts 303°
2026-05-07 06:06 49.98218 14.50474 4190 ft 230 kts 303°
2026-05-07 06:06 49.99162 14.48535 4083 ft 220 kts 303°
2026-05-07 06:06 50.00065 14.46677 3980 ft 211 kts 302°
2026-05-07 06:07 50.00936 14.44885 3842 ft 205 kts 302°
2026-05-07 06:07 50.01792 14.43122 3599 ft 204 kts 303°
2026-05-07 06:07 50.02641 14.41375 3345 ft 201 kts 302°
2026-05-07 06:07 50.03467 14.39674 3066 ft 197 kts 302°
2026-05-07 06:08 50.04277 14.38008 2825 ft 191 kts 302°
2026-05-07 06:08 50.05064 14.36389 2614 ft 183 kts 302°
2026-05-07 06:08 50.05800 14.34871 2359 ft 168 kts 301°
2026-05-07 06:08 50.06471 14.33490 2109 ft 153 kts 301°
2026-05-07 06:09 50.07080 14.32233 1910 ft 138 kts 301°
2026-05-07 06:09 50.07625 14.31108 1719 ft 125 kts 300°
2026-05-07 06:09 50.08157 14.30003 1544 ft 133 kts 302°
2026-05-07 06:09 50.08714 14.28860 1363 ft 131 kts 302°
2026-05-07 06:10 50.09268 14.27717 1243 ft 133 kts 301°
2026-05-07 06:10 50.09729 14.26746 1215 ft 74 kts 309°
2026-05-07 06:10 50.09934 14.26323 1203 ft 44 kts 306°
2026-05-07 06:10 50.10120 14.25937 1191 ft 44 kts 306°
2026-05-07 06:11 50.10308 14.25677 1187 ft 22 kts 340°
2026-05-07 06:11 50.10446 14.25663 1185 ft 4 kts
2026-05-07 06:11 50.10476 14.25693 1185 ft 6 kts 71°
2026-05-07 06:11 50.10490 14.25775 1185 ft 10 kts 77°
2026-05-07 06:12 50.10508 14.25906 1183 ft 15 kts 79°
2026-05-07 06:12 50.10531 14.26097 1178 ft 21 kts 78°
2026-05-07 06:12 50.10518 14.26283 1174 ft 17 kts 122°
2026-05-07 06:12 50.10476 14.26381 1175 ft 11 kts 125°
2026-05-07 06:13 50.10456 14.26426 1175 ft 2 kts 118°
2026-05-07 06:13 50.10464 14.26456 1177 ft 3 kts 43°
2026-05-07 06:13 50.10476 14.26468 1173 ft 2 kts 31°
2026-05-07 06:13 50.10485 14.26477 1175 ft 0 kts 35°
2026-05-07 06:14 50.10485 14.26478 1175 ft 0 kts 34°